Terminal Aerodrome Forecast
Issued by NWS Sioux Falls, SD

Home | Current Version | Previous Version | Graphics & Text | Print | Product List | Glossary On
Versions: 1 2 3 4 5 6 7 8 9 10 11 12 13 14 15
000
FTUS43 KFSD 110520
TAFHON
TAF
KHON 110520Z 1106/1206 26008KT P6SM SCT150
     FM111000 30014G22KT P6SM BKN090
     FM111400 32018G27KT P6SM -SHSN OVC025
     FM111800 34021G33KT P6SM OVC025
     FM112300 35014G22KT P6SM BKN050
     FM120200 35007KT P6SM BKN060=

USA.gov is the U.S. government's official web portal to all federal, state and local government web resources and services.